Date String (YYYY-MM-DD hh:mm:ss) UTC,Instrument flags,absolute air pressure of the measurement (hPa),sample flow rate (lpm),inlet stack bypass flow (lpm),air temperature of the measurement (°C),ambient temperature measured by the external sensor (°C),aerosol sample conditioner tube jacket temperature (°C),OPC LED temperature (°C),internal box temperature (°C),relative humidity of the measurement (%),span deviation,mass concentration of particles derived from Lorenz-Mie calculation of OPC scattering (μg/m³),mass concentration of particles derived from Lorenz-Mie calculation of OPC scattering (μg/m³),mass concentration of particles derived from Lorenz-Mie calculation of OPC scattering (μg/m³)
DateTimeUTC,F1_M11,P_M11,Q1_M11,Q2_M11,T1_M11,T2_M11,T3_M11,T4_M11,T5_M11,U1_M11,ZSPAN_M11,X0_M11,X2_M11,X1_M11
2023-08-18 20:00:00,SystemResetWarning,0829.2,4.99,000.00,027.4,024.7,000.0,035.6,029.0,26.4,0000.0,0004.02,0002.66,0002.18
2023-08-18 20:01:00,SystemResetWarning,0829.3,5.00,000.00,027.4,025.1,000.0,035.6,029.0,26.3,0000.0,0005.07,0002.75,0002.17
2023-08-18 20:02:00,SystemResetWarning,0829.3,5.01,000.00,027.5,025.6,000.0,035.6,029.2,26.3,0000.0,0005.77,0002.78,0002.16
2023-08-18 20:03:00,SystemResetWarning,0829.3,4.99,000.00,027.5,025.9,000.0,035.7,029.3,26.1,0000.0,0005.71,0002.75,0002.15
2023-08-18 20:04:00,SystemResetWarning,0829.3,4.98,000.00,027.5,025.4,000.0,035.6,029.2,25.7,0000.0,0005.85,0002.76,0002.18
2023-08-18 20:05:00,SystemResetWarning,0829.4,5.01,000.00,027.5,024.2,000.0,035.6,028.8,26.1,0000.0,0005.75,0002.74,0002.21
2023-08-18 20:06:00,SystemResetWarning,0829.4,5.01,000.00,027.4,024.3,000.0,035.5,028.9,25.9,0000.0,0005.65,0002.76,0002.24
2023-08-18 20:07:00,SystemResetWarning,0829.4,5.00,000.00,027.4,024.7,000.0,035.6,028.9,25.9,0000.0,0005.48,0002.78,0002.27
2023-08-18 20:08:00,SystemResetWarning,0829.4,4.99,000.00,027.4,025.1,000.0,035.6,029.0,26.0,0000.0,0005.54,0002.80,0002.28
2023-08-18 20:09:00,SystemResetWarning,0829.4,5.00,000.00,027.5,025.5,000.0,035.7,029.2,26.1,0000.0,0005.63,0002.84,0002.29
2023-08-18 20:10:00,SystemResetWarning,0829.4,5.00,000.00,027.5,025.5,000.0,035.6,029.2,25.4,0000.0,0006.21,0002.90,0002.32
2023-08-18 20:11:00,SystemResetWarning,0829.4,4.99,000.00,027.5,024.4,000.0,035.6,029.0,25.2,0000.0,0006.55,0002.91,0002.33
2023-08-18 20:12:00,SystemResetWarning,0829.4,5.01,000.00,027.4,024.0,000.0,035.5,028.9,25.2,0000.0,0005.85,0002.83,0002.35
2023-08-18 20:13:00,SystemResetWarning,0829.3,5.02,000.00,027.4,024.4,000.0,035.5,028.9,25.4,0000.0,0005.14,0002.84,0002.37
2023-08-18 20:14:00,SystemResetWarning,0829.2,4.99,000.00,027.4,024.8,000.0,035.6,028.9,25.9,0000.0,0005.71,0002.90,0002.39
2023-08-18 20:15:00,SystemResetWarning,0829.3,4.99,000.00,027.4,025.3,000.0,035.6,029.1,26.4,0000.0,0005.68,0002.93,0002.39
2023-08-18 20:16:00,SystemResetWarning,0829.4,5.01,000.00,027.4,025.7,000.0,035.6,029.2,26.1,0000.0,0005.45,0002.91,0002.39
2023-08-18 20:17:00,SystemResetWarning,0829.4,5.00,000.00,027.5,026.0,000.0,035.7,029.3,25.5,0000.0,0005.57,0002.91,0002.38
2023-08-18 20:18:00,SystemResetWarning,0829.3,4.98,000.00,027.5,025.1,000.0,035.6,029.1,25.7,0000.0,0005.59,0002.89,0002.35
2023-08-18 20:19:00,SystemResetWarning,0829.3,5.00,000.00,027.4,024.1,000.0,035.6,028.9,26.2,0000.0,0005.59,0002.89,0002.34
2023-08-18 20:20:00,SystemResetWarning,0829.2,5.02,000.00,027.4,024.3,000.0,035.5,028.9,26.0,0000.0,0005.73,0002.93,0002.34
2023-08-18 20:21:00,SystemResetWarning,0829.3,5.00,000.00,027.4,024.7,000.0,035.6,028.9,26.8,0000.0,0005.44,0002.88,0002.31
2023-08-18 20:22:00,SystemResetWarning,0829.2,5.01,000.00,027.4,025.1,000.0,035.6,029.0,26.5,0000.0,0005.43,0002.86,0002.30
2023-08-18 20:23:00,SystemResetWarning,0829.2,5.00,000.00,027.4,025.5,000.0,035.6,029.1,26.4,0000.0,0005.39,0002.89,0002.28
2023-08-18 20:24:00,SystemResetWarning,0829.1,4.99,000.00,027.5,025.8,000.0,035.7,029.2,26.7,0000.0,0005.60,0002.86,0002.25
2023-08-18 20:25:00,SystemResetWarning,0829.1,4.98,000.00,027.5,024.9,000.0,035.6,029.1,26.7,0000.0,0005.98,0002.81,0002.23
2023-08-18 20:26:00,SystemResetWarning,0829.1,5.00,000.00,027.4,024.0,000.0,035.6,028.9,27.1,0000.0,0005.96,0002.79,0002.21
2023-08-18 20:27:00,SystemResetWarning,0829.1,5.01,000.00,027.4,024.3,000.0,035.5,028.9,26.7,0000.0,0005.95,0002.78,0002.18
2023-08-18 20:28:00,SystemResetWarning,0829.1,5.01,000.00,027.4,024.6,000.0,035.6,028.9,26.9,0000.0,0005.80,0002.74,0002.15
2023-08-18 20:29:00,SystemResetWarning,0829.1,5.00,000.00,027.4,025.1,000.0,035.6,029.0,27.0,0000.0,0005.81,0002.74,0002.14
2023-08-18 20:30:00,SystemResetWarning,0829.0,5.00,000.00,027.4,025.5,000.0,035.6,029.2,26.4,0000.0,0005.90,0002.77,0002.14
2023-08-18 20:31:00,SystemResetWarning,0829.1,5.00,000.00,027.5,025.8,000.0,035.7,029.3,26.2,0000.0,0005.76,0002.72,0002.15
2023-08-18 20:32:00,SystemResetWarning,0829.0,4.98,000.00,027.5,024.8,000.0,035.6,029.1,25.7,0000.0,0005.68,0002.71,0002.14
2023-08-18 20:33:00,SystemResetWarning,0828.9,5.00,000.00,027.4,023.9,000.0,035.5,028.8,25.6,0000.0,0005.13,0002.70,0002.14
2023-08-18 20:34:00,SystemResetWarning,0828.9,5.02,000.00,027.4,024.2,000.0,035.5,028.8,26.1,0000.0,0005.07,0002.66,0002.13
2023-08-18 20:35:00,SystemResetWarning,0828.9,5.00,000.00,027.4,024.6,000.0,035.6,028.8,26.0,0000.0,0004.92,0002.64,0002.13
2023-08-18 20:36:00,SystemResetWarning,0828.9,5.00,000.00,027.4,025.0,000.0,035.6,029.0,25.4,0000.0,0003.69,0002.63,0002.13
2023-08-18 20:37:00,SystemResetWarning,0828.9,5.00,000.00,027.4,025.5,000.0,035.6,029.1,25.4,0000.0,0003.64,0002.62,0002.11
2023-08-18 20:38:00,SystemResetWarning,0829.0,5.01,000.00,027.5,025.7,000.0,035.6,029.2,25.3,0000.0,0003.64,0002.58,0002.11
2023-08-18 20:39:00,SystemResetWarning,0829.0,4.98,000.00,027.5,024.6,000.0,035.6,029.0,25.7,0000.0,0003.80,0002.62,0002.11
2023-08-18 20:40:00,SystemResetWarning,0829.0,5.02,000.00,027.4,023.8,000.0,035.5,028.8,25.8,0000.0,0003.86,0002.63,0002.12
2023-08-18 20:41:00,SystemResetWarning,0829.0,5.01,000.00,027.3,024.1,000.0,035.5,028.9,25.8,0000.0,0003.83,0002.62,0002.12
2023-08-18 20:42:00,SystemResetWarning,0828.9,5.00,000.00,027.3,024.5,000.0,035.5,028.9,26.1,0000.0,0003.97,0002.66,0002.13
2023-08-18 20:43:00,SystemResetWarning,0828.9,5.00,000.00,027.3,025.0,000.0,035.6,029.0,26.1,0000.0,0004.01,0002.69,0002.14
2023-08-18 20:44:00,SystemResetWarning,0829.0,5.00,000.00,027.4,025.4,000.0,035.6,029.1,26.1,0000.0,0003.96,0002.70,0002.16
2023-08-18 20:45:00,SystemResetWarning,0829.0,4.99,000.00,027.5,025.8,000.0,035.7,029.2,25.6,0000.0,0003.84,0002.68,0002.17
2023-08-18 20:46:00,SystemResetWarning,0829.0,5.00,000.00,027.5,026.0,000.0,035.7,029.3,25.5,0000.0,0003.81,0002.69,0002.18
2023-08-18 20:47:00,SystemResetWarning,0829.0,4.98,000.00,027.5,024.8,000.0,035.6,029.1,25.7,0000.0,0003.89,0002.73,0002.21
2023-08-18 20:48:00,SystemResetWarning,0829.0,5.01,000.00,027.5,024.0,000.0,035.5,029.0,26.1,0000.0,0003.85,0002.73,0002.24
2023-08-18 20:49:00,SystemResetWarning,0829.0,5.01,000.00,027.4,024.3,000.0,035.5,029.0,25.7,0000.0,0003.78,0002.73,0002.27
2023-08-18 20:50:00,SystemResetWarning,0829.0,5.00,000.00,027.4,024.7,000.0,035.6,029.0,25.3,0000.0,0003.60,0002.69,0002.28
2023-08-18 20:51:00,SystemResetWarning,0829.0,5.01,000.00,027.4,025.1,000.0,035.6,029.0,25.6,0000.0,0003.46,0002.68,0002.30
2023-08-18 20:52:00,SystemResetWarning,0829.0,5.00,000.00,027.5,025.6,000.0,035.6,029.2,25.6,0000.0,0004.98,0002.70,0002.31
2023-08-18 20:53:00,SystemResetWarning,0828.9,5.00,000.00,027.5,025.9,000.0,035.7,029.3,25.5,0000.0,0005.50,0002.74,0002.33
2023-08-18 20:54:00,SystemResetWarning,0829.0,4.99,000.00,027.6,025.4,000.0,035.7,029.2,25.8,0000.0,0005.62,0002.76,0002.32
2023-08-18 20:55:00,SystemResetWarning,0828.9,4.99,000.00,027.5,024.1,000.0,035.6,029.0,26.1,0000.0,0005.78,0002.78,0002.33
2023-08-18 20:56:00,SystemResetWarning,0828.9,5.01,000.00,027.4,024.0,000.0,035.5,029.0,26.3,0000.0,0006.12,0002.84,0002.36
2023-08-18 20:57:00,SystemResetWarning,0828.8,5.00,000.00,027.4,024.4,000.0,035.6,028.9,27.6,0000.0,0006.35,0002.88,0002.37
2023-08-18 20:58:00,SystemResetWarning,0828.8,5.00,000.00,027.4,024.8,000.0,035.6,028.9,27.8,0000.0,0006.27,0002.85,0002.37
2023-08-18 20:59:00,SystemResetWarning,0828.8,5.01,000.00,027.4,025.3,000.0,035.7,029.1,26.9,0000.0,0006.30,0002.87,0002.36
